Location: Aldenham
(51.6667°N, 0.3500°W)
Time: 21:26:03
(UTC+00:00)

Vanguard 2 Rocket - Pass Details

Date: 20 February 2026
Orbit: 553 x 3286 km, 32.9° (Epoch: 8 March)

Event Time Altitude Azimuth Distance (km) Brightness Sun altitude
Rises 15:50:38 0° 263° (W) 6,868 12.6 12.3°
Reaches altitude 10° 15:56:39 10° 253° (WSW) 5,482 12.7 11.5°
Maximum altitude 16:07:58 26° 206° (SSW) 3,378 10.9 10.1°
Drops below altitude 10° 16:15:45 10° 155° (SSE) 3,663 10.1 9.0°
Sets 16:18:50 0° 142° (SE) 4,280 10.3 8.6°
